Date,TemperatureHighF,TemperatureAvgF,TemperatureLowF,DewpointHighF,DewpointAvgF,DewpointLowF,HumidityHigh,HumidityAvg,HumidityLow,PressureMaxIn,PressureMinIn,WindSpeedMaxMPH,WindSpeedAvgMPH,GustSpeedMaxMPH,PrecipitationSumIn
2013-1-1,49,46,42,48,40,29,96,82,50,30.09,29.91,11,1,11,0.23
2013-1-2,48,43,38,47,40,37,96,90,74,30.17,29.90,11,1,11,0.20
2013-1-3,43,38,28,38,36,27,96,92,82,30.25,30.13,6,0,6,0.00
2013-1-4,50,38,28,30,25,22,96,65,33,30.31,30.18,14,2,14,0.00
2013-1-5,51,38,30,31,26,22,77,61,37,30.37,30.24,13,1,13,0.00
2013-1-6,53,43,36,39,36,30,92,77,58,30.24,30.04,5,0,5,0.00
2013-1-7,52,39,30,35,31,28,93,75,46,30.42,30.17,9,1,9,0.00
2013-1-8,56,40,28,40,35,27,96,82,53,30.47,30.36,5,0,5,0.00
2013-1-9,66,50,35,54,45,34,96,84,64,30.44,30.33,8,0,10,0.00
2013-1-10,63,54,44,51,44,36,92,72,43,30.52,30.40,7,1,7,0.00
2013-1-11,48,45,40,47,42,37,96,90,71,30.42,30.14,5,0,5,0.13
2013-1-12,72,58,48,65,56,47,96,92,76,30.15,30.07,6,0,6,0.00
2013-1-13,74,62,54,63,58,53,96,87,65,30.11,30.02,13,1,16,0.01
2013-1-14,65,62,54,62,60,52,96,91,84,30.13,30.05,9,1,9,0.46
2013-1-15,54,44,42,52,43,41,96,96,95,30.22,30.05,10,1,10,0.08
2013-1-16,49,44,40,48,43,39,96,96,96,30.07,29.95,7,1,7,0.20
2013-1-17,50,45,33,49,44,32,97,96,95,30.14,29.89,15,2,15,1.43
2013-1-18,43,34,26,34,30,25,97,85,52,30.52,30.13,11,2,11,0.49
2013-1-19,54,37,24,33,28,23,96,73,36,30.50,30.14,9,1,9,0.10
2013-1-20,62,47,38,36,32,30,76,58,35,30.14,29.97,15,2,15,0.00
2013-1-21,59,44,29,36,28,16,95,59,31,30.07,29.85,14,2,14,0.00
2013-1-22,42,32,20,18,6,-4,55,34,18,30.28,29.93,20,3,20,0.00
2013-1-23,41,27,15,18,12,4,81,56,33,30.37,30.05,13,1,13,0.00
2013-1-24,36,30,21,26,12,2,72,49,29,30.51,29.96,20,3,20,0.00
2013-1-25,26,23,18,24,15,5,93,74,48,30.53,30.10,7,1,7,0.00
2013-1-26,37,29,25,34,28,24,96,93,84,30.41,30.08,7,0,7,0.02
2013-1-27,41,30,21,29,26,20,96,84,59,30.60,30.39,7,1,7,0.02
2013-1-28,50,42,30,47,37,28,94,83,63,30.50,30.21,11,1,11,0.01
2013-1-29,73,59,48,58,53,47,95,81,56,30.22,30.03,12,2,12,0.00
2013-1-30,72,67,62,65,62,57,94,85,76,30.03,29.35,30,6,30,0.44
2013-1-31,61,45,29,57,30,19,92,58,32,29.98,29.41,19,5,26,0.19
2013-2-1,41,33,24,29,14,4,79,47,26,30.38,29.85,23,4,23,0.00
2013-2-2,43,32,16,34,14,7,82,49,28,30.39,30.02,19,2,19,0.00
2013-2-3,47,39,32,35,30,24,95,70,46,30.02,29.83,20,2,20,0.00
2013-2-4,49,37,24,28,23,19,87,59,35,30.14,29.98,9,1,9,0.00
2013-2-5,59,45,38,36,33,28,81,62,39,29.99,29.87,11,2,11,0.00
2013-2-6,60,45,31,36,30,25,94,61,28,30.27,29.95,12,2,12,0.00
2013-2-7,45,40,35,40,35,27,96,84,70,30.33,30.00,7,2,7,0.68
2013-2-8,54,44,37,46,39,29,96,83,58,30.03,29.80,21,4,21,0.53
2013-2-9,52,39,27,29,23,17,92,58,26,30.35,30.03,15,2,15,0.00
2013-2-10,52,38,24,38,24,20,89,60,30,30.49,30.20,11,1,11,0.06
2013-2-11,61,54,40,59,53,38,96,94,89,30.20,29.89,11,2,11,0.07
2013-2-12,59,52,45,52,36,26,93,57,29,30.07,29.89,12,2,12,0.00
2013-2-13,48,45,41,45,42,35,96,92,66,29.93,29.60,12,1,12,0.38
2013-2-14,50,40,29,35,32,28,96,75,45,30.06,29.81,11,1,11,0.00
2013-2-15,62,46,30,39,33,28,96,66,29,30.07,29.91,13,2,13,0.00
2013-2-16,45,35,28,35,32,25,96,88,68,29.95,29.82,11,2,12,0.25
2013-2-17,36,28,21,25,15,7,91,64,30,30.28,29.91,18,2,18,0.00
2013-2-18,52,34,16,26,19,13,90,59,28,30.41,30.23,12,1,12,0.05
2013-2-19,49,40,28,47,36,24,96,87,60,30.23,29.84,14,2,14,0.29
2013-2-20,51,39,27,37,21,11,93,53,21,30.13,29.95,18,2,18,0.00
2013-2-21,54,40,26,26,19,16,74,46,23,30.25,30.10,12,2,12,0.00
2013-2-22,41,35,31,34,31,22,96,87,47,30.34,30.12,6,1,6,0.28
2013-2-23,42,39,35,41,38,34,96,96,95,30.12,29.81,7,1,7,0.52
2013-2-24,62,49,39,44,37,26,96,69,27,30.02,29.78,13,2,13,0.00
2013-2-25,42,36,31,29,25,22,78,64,49,30.21,30.02,9,1,9,0.00
2013-2-26,55,43,32,54,39,25,96,88,66,30.14,29.55,11,2,11,0.90
2013-2-27,59,48,41,43,40,35,96,75,46,29.76,29.60,15,2,15,0.00
2013-2-28,48,42,36,40,32,27,95,70,45,29.84,29.67,13,2,13,0.00
2013-3-1,46,40,30,31,28,26,88,65,49,29.90,29.81,13,2,13,0.00
2013-3-2,46,37,27,31,26,20,91,66,45,29.91,29.80,12,2,12,0.00
2013-3-3,44,34,26,22,20,18,80,57,39,29.97,29.83,15,3,15,0.00
2013-3-4,51,36,23,24,17,14,77,49,23,30.11,29.96,18,2,18,0.00
2013-3-5,46,40,33,43,35,23,96,81,50,30.07,29.55,7,1,7,0.36
2013-3-6,47,41,35,42,32,27,96,73,53,30.02,29.50,24,6,24,0.05
2013-3-7,50,41,33,31,29,26,81,63,48,30.22,30.02,16,3,16,0.00
2013-3-8,55,43,32,29,26,23,78,53,31,30.28,30.14,21,4,21,0.00
2013-3-9,63,46,34,32,29,26,76,54,25,30.33,30.22,11,2,11,0.00
2013-3-10,68,49,32,34,29,23,86,53,20,30.31,30.18,9,1,9,0.00
2013-3-11,67,53,36,54,43,26,83,69,53,30.22,29.90,13,2,13,0.00
2013-3-12,68,60,49,61,52,30,96,77,41,29.92,29.73,15,4,15,0.78
2013-3-13,55,45,31,36,27,18,93,53,29,30.12,29.92,19,4,19,0.00
2013-3-14,53,40,30,21,18,15,60,42,23,30.23,30.09,14,3,16,0.00
2013-3-15,63,46,25,36,28,19,84,52,33,30.16,29.87,19,2,19,0.00
2013-3-16,77,61,45,54,45,36,78,57,36,29.88,29.62,18,2,18,0.00
2013-3-17,61,49,39,53,44,38,94,84,69,30.15,29.80,10,2,10,0.00
2013-3-18,40,38,37,39,37,36,96,96,94,30.19,29.83,10,2,10,0.31
2013-3-19,66,50,38,46,31,8,96,59,18,30.01,29.81,18,3,18,0.00
2013-3-20,56,46,35,26,15,8,67,30,18,30.09,29.77,13,2,13,0.00
2013-3-21,44,38,30,34,19,11,82,49,31,29.96,29.72,20,4,20,0.00
2013-3-22,52,36,23,24,15,10,67,45,21,30.07,29.95,12,2,12,0.00
2013-3-23,58,44,32,34,26,20,79,52,32,30.04,29.89,6,0,6,0.00
2013-3-24,40,37,33,38,34,29,96,90,80,29.92,29.54,14,2,14,0.85
2013-3-25,48,40,34,38,30,23,96,72,40,29.80,29.55,22,3,22,0.01
2013-3-26,48,41,32,30,27,24,78,58,45,30.10,29.79,15,3,15,0.00
2013-3-27,50,41,32,28,25,20,77,55,32,30.22,30.09,22,4,22,0.00
2013-3-28,55,43,33,28,25,22,72,51,30,30.28,30.14,18,3,18,0.00
2013-3-29,59,44,28,31,26,23,86,55,25,30.31,30.16,12,1,12,0.00
2013-3-30,67,53,39,42,34,27,80,51,27,30.22,30.06,9,1,9,0.00
2013-3-31,67,55,47,57,51,41,96,84,64,30.07,29.78,14,2,14,0.93
2013-4-1,71,59,50,53,47,36,96,69,32,29.95,29.78,18,2,18,0.07
2013-4-2,60,47,32,36,28,20,90,52,22,30.14,29.95,14,2,14,0.00
2013-4-3,59,47,34,29,22,16,68,39,19,30.28,30.12,14,2,14,0.00
2013-4-4,48,41,38,39,30,20,95,68,38,30.35,29.92,11,2,11,0.93
2013-4-5,66,48,37,48,41,36,96,80,39,30.00,29.86,11,2,11,0.06
2013-4-6,66,52,42,40,32,20,90,49,24,30.25,30.00,10,2,10,0.00
2013-4-7,72,55,35,45,39,33,92,59,33,30.26,30.08,19,2,19,0.00
2013-4-8,80,65,51,57,52,44,95,66,39,30.14,30.01,15,2,15,0.00
2013-4-9,86,71,55,60,57,53,95,64,36,30.15,30.01,12,2,12,0.00
2013-4-10,87,73,59,63,59,56,92,65,38,30.06,29.90,13,2,13,0.00
2013-4-11,82,71,61,66,61,58,93,72,48,29.95,29.75,14,3,14,0.00
2013-4-12,83,72,64,69,62,43,95,73,45,29.76,29.55,14,3,14,1.07
2013-4-13,75,62,47,46,42,37,80,51,26,29.98,29.72,11,2,11,0.00
2013-4-14,82,63,42,54,43,35,93,55,19,30.08,29.98,10,1,10,0.00
2013-4-15,73,63,56,59,57,54,96,81,57,30.18,29.99,9,1,9,0.10
2013-4-16,79,66,58,62,59,56,94,80,51,30.27,30.16,5,0,5,0.00
2013-4-17,84,68,55,65,61,54,96,81,50,30.19,30.07,6,1,6,0.00
2013-4-18,80,69,57,64,61,56,95,76,49,30.16,30.00,9,1,9,0.00
2013-4-19,81,70,64,69,65,62,95,85,63,30.01,29.67,20,2,20,1.42
2013-4-20,65,54,41,62,40,31,95,63,30,30.25,29.77,11,2,11,0.03
2013-4-21,63,50,39,42,38,35,96,67,41,30.48,30.25,10,1,10,0.00
2013-4-22,64,49,36,46,38,34,93,69,38,30.47,30.25,11,1,11,0.02
2013-4-23,71,54,46,53,47,44,95,79,50,30.27,30.10,5,1,5,0.02
2013-4-24,76,61,45,58,53,44,96,78,52,30.12,29.94,13,1,13,0.00
2013-4-25,73,59,45,58,45,39,93,63,31,30.25,29.98,9,1,9,0.00
2013-4-26,74,56,40,47,41,34,96,63,25,30.41,30.25,6,0,6,0.00
2013-4-27,74,60,50,54,48,44,92,67,36,30.35,30.23,6,0,6,0.00
2013-4-28,58,55,52,56,53,51,96,94,83,30.23,30.06,0,0,0,0.73
2013-4-29,74,62,54,64,59,53,96,91,65,30.07,29.94,1,0,1,0.43
2013-4-30,66,59,55,61,57,53,96,92,79,30.16,29.98,4,0,4,0.01
2013-5-1,62,58,55,59,56,54,96,95,90,30.30,30.14,6,1,6,0.04
2013-5-2,62,57,52,58,55,51,96,94,88,30.31,30.24,4,0,4,0.01
2013-5-3,69,56,47,57,50,43,96,81,53,30.26,30.15,6,0,6,0.00
2013-5-4,64,54,48,54,49,45,91,82,65,30.20,30.06,7,1,7,0.00
2013-5-5,58,53,49,55,51,46,95,90,83,30.09,29.97,8,1,8,0.03
2013-5-6,65,59,55,63,57,54,96,96,91,29.99,29.81,7,0,7,1.46
2013-5-7,73,60,50,61,54,48,96,83,43,29.92,29.83,5,0,5,0.00
2013-5-8,69,60,51,62,56,50,96,88,67,29.98,29.90,7,0,7,0.28
2013-5-9,82,64,51,64,57,50,96,80,44,30.03,29.95,6,0,6,0.00
2013-5-10,86,70,54,65,60,53,96,74,42,30.04,29.91,6,0,6,0.00
2013-5-11,82,71,65,68,64,60,94,78,53,29.92,29.75,8,1,8,0.01
2013-5-12,72,64,50,63,49,36,95,63,33,30.00,29.75,11,1,11,0.01
2013-5-13,66,53,41,43,38,32,86,59,31,30.17,30.00,8,1,8,0.00
2013-5-14,72,54,36,47,40,34,96,64,30,30.24,30.05,7,0,7,0.00
2013-5-15,89,68,49,66,56,44,87,67,42,30.05,29.86,5,0,5,0.00
2013-5-16,86,73,61,67,62,59,94,71,44,29.94,29.86,8,0,8,0.00
2013-5-17,89,73,60,71,64,59,95,75,40,30.05,29.94,4,0,4,0.00
2013-5-18,75,68,60,71,65,59,96,91,77,30.12,30.03,7,0,7,1.14
2013-5-19,80,68,63,72,66,62,96,93,69,30.12,30.02,6,0,6,1.08
2013-5-20,78,69,66,73,67,65,95,94,80,30.08,29.99,5,0,5,0.42
2013-5-21,86,73,67,75,69,66,95,87,65,30.02,29.90,4,0,4,0.01
2013-5-22,85,74,67,72,69,66,95,84,60,29.99,29.87,6,0,6,0.00
2013-5-23,81,72,65,71,68,64,95,88,67,29.92,29.77,5,0,5,0.50
2013-5-24,68,63,50,65,53,39,96,71,40,30.16,29.78,13,2,13,0.01
2013-5-25,75,56,40,54,42,34,96,64,27,30.25,30.11,12,1,12,0.00
2013-5-26,76,60,47,55,46,41,93,65,32,30.26,30.15,5,0,5,0.00
2013-5-27,82,64,48,60,54,47,96,73,39,30.26,30.12,5,0,5,0.00
2013-5-28,84,70,57,68,62,54,96,78,55,30.22,30.11,6,1,6,0.00
2013-5-29,86,73,60,67,64,58,95,76,49,30.21,30.12,6,0,6,0.00
2013-5-30,89,73,60,70,65,59,96,79,47,30.24,30.14,5,0,5,0.00
2013-5-31,88,74,62,71,66,61,96,79,50,30.19,30.07,6,0,6,0.00
2013-6-1,88,76,65,70,67,64,95,76,45,30.10,29.98,8,1,8,0.00
2013-6-2,86,76,68,73,68,65,94,78,56,30.01,29.87,7,1,7,0.14
2013-6-3,84,72,65,74,69,63,96,90,66,29.92,29.79,7,0,7,0.55
2013-6-4,76,68,62,69,65,61,96,90,74,30.07,29.91,2,0,2,0.01
2013-6-5,83,70,60,69,63,59,96,82,50,30.11,29.99,4,0,4,0.00
2013-6-6,73,70,64,71,67,60,95,91,79,30.00,29.78,4,0,4,0.39
2013-6-7,71,69,67,69,68,66,95,95,95,29.82,29.49,7,0,7,3.33
2013-6-8,85,72,64,71,67,62,96,86,57,30.07,29.78,6,0,6,0.07
2013-6-9,90,75,64,75,69,62,95,83,58,30.13,30.02,5,0,5,0.00
2013-6-10,81,73,71,78,71,69,95,94,87,30.07,29.85,7,0,7,0.51
2013-6-11,86,75,68,71,68,65,95,80,52,29.92,29.86,12,1,12,0.01
2013-6-12,92,77,64,77,70,62,96,81,58,29.94,29.82,6,0,6,0.00
2013-6-13,95,78,67,77,72,61,95,82,43,29.83,29.55,22,1,22,0.23
2013-6-14,81,69,59,66,60,57,95,77,50,29.98,29.69,13,1,13,0.00
2013-6-15,86,70,56,67,61,55,96,77,45,30.09,29.98,5,0,5,0.00
2013-6-16,88,75,64,72,66,60,94,77,57,30.08,29.97,6,0,6,0.00
2013-6-17,86,76,70,76,70,66,92,83,65,30.00,29.89,5,0,5,0.00
2013-6-18,83,73,68,75,70,67,96,91,76,29.94,29.73,8,0,8,1.15
2013-6-19,82,71,64,71,67,62,96,87,66,30.09,29.85,6,0,6,0.01
2013-6-20,84,71,63,68,64,62,96,80,52,30.21,30.09,4,0,4,0.00
2013-6-21,85,69,55,65,59,54,96,73,39,30.24,30.17,4,0,5,0.00
2013-6-22,83,72,64,74,69,62,96,91,69,30.19,30.08,5,0,5,0.11
2013-6-23,88,75,65,78,71,64,96,88,65,30.19,30.09,4,0,4,0.09
2013-6-24,87,76,69,77,72,67,95,87,67,30.18,30.05,7,0,7,0.00
2013-6-25,92,77,68,78,72,67,96,85,59,30.09,29.97,7,0,7,0.02
2013-6-26,91,76,68,78,71,65,96,86,57,30.00,29.85,11,0,11,1.15
2013-6-27,86,76,67,80,73,66,96,90,78,29.90,29.68,6,0,6,0.01
2013-6-28,91,78,70,77,72,69,95,85,58,29.71,29.53,8,0,8,0.54
2013-6-29,86,75,69,76,71,67,95,89,69,29.69,29.56,4,0,4,0.31
2013-6-30,88,74,69,76,71,67,95,91,65,29.83,29.67,6,0,6,0.92
2013-7-1,82,74,69,76,71,68,95,91,78,29.96,29.81,4,0,4,1.28
2013-7-2,75,73,71,73,71,70,95,95,94,30.15,29.96,4,0,4,0.52
2013-7-3,86,75,72,78,73,70,95,92,71,30.21,30.12,10,0,10,1.02
2013-7-4,88,78,72,78,74,70,95,87,65,30.25,30.14,7,0,7,0.02
2013-7-5,90,79,71,77,73,70,95,84,60,30.24,30.12,5,0,5,0.02
2013-7-6,89,78,72,78,73,71,95,85,62,30.22,30.08,4,0,4,0.00
2013-7-7,88,76,67,79,72,66,95,88,70,30.16,30.03,4,0,5,0.39
2013-7-8,91,78,70,78,73,69,95,87,58,30.14,30.05,6,0,6,0.68
2013-7-9,88,76,71,79,74,69,95,92,74,30.12,30.02,4,0,4,0.03
2013-7-10,88,78,71,78,73,70,95,87,68,30.07,29.90,7,0,7,0.92
2013-7-11,78,74,72,76,72,71,95,95,89,29.94,29.84,4,0,4,0.48
2013-7-12,74,71,69,72,70,68,96,95,91,30.00,29.84,5,0,5,0.05
2013-7-13,76,72,68,75,71,67,95,95,95,30.15,29.99,2,0,2,0.26
2013-7-14,88,77,70,80,73,69,95,90,67,30.27,30.15,4,0,4,0.09
2013-7-15,92,78,67,78,72,66,95,84,57,30.29,30.21,3,0,3,0.00
2013-7-16,95,80,68,82,74,67,95,84,57,30.25,30.14,5,0,5,0.00
2013-7-17,94,82,74,81,76,72,95,84,56,30.19,30.07,3,0,3,0.01
2013-7-18,95,82,72,82,76,70,95,84,57,30.10,29.99,2,0,2,0.00
2013-7-19,92,81,73,79,75,72,95,84,63,30.06,29.94,5,0,5,0.00
2013-7-20,89,79,73,79,75,72,95,88,68,29.99,29.88,5,0,5,0.00
2013-7-21,90,78,72,78,74,71,95,89,68,29.95,29.86,5,0,5,0.02
2013-7-22,88,77,70,78,73,69,95,87,69,29.92,29.79,6,0,6,0.00
2013-7-23,92,79,72,78,74,71,95,83,60,29.81,29.68,8,0,8,0.00
2013-7-24,94,80,68,76,72,67,96,79,48,29.81,29.69,5,0,5,0.00
2013-7-25,80,72,65,72,68,64,96,89,74,30.01,29.80,8,0,8,0.71
2013-7-26,87,72,61,72,66,60,96,83,56,30.09,30.00,2,0,2,0.00
2013-7-27,84,71,63,75,68,62,96,91,67,30.03,29.91,9,0,9,1.22
2013-7-28,88,75,68,76,70,66,95,87,59,29.97,29.89,4,0,4,0.00
2013-7-29,88,74,64,71,68,63,96,81,50,30.13,29.95,6,0,6,0.02
2013-7-30,88,73,61,74,66,59,96,82,53,30.19,30.11,4,0,4,0.00
2013-7-31,83,74,68,75,71,67,96,90,72,30.12,29.97,9,0,9,0.32
2013-8-1,86,75,70,77,72,67,96,90,69,29.98,29.83,4,0,9,0.23
2013-8-2,90,75,65,77,70,64,96,85,57,30.00,29.87,6,0,6,1.22
2013-8-3,89,75,68,79,72,67,96,91,67,29.99,29.88,6,0,6,0.03
2013-8-4,87,74,65,72,68,64,96,83,51,30.00,29.86,7,0,7,0.00
2013-8-5,84,72,63,72,66,62,96,85,54,30.07,29.97,4,0,4,0.00
2013-8-6,82,72,65,72,68,64,96,87,68,30.03,29.96,6,0,6,0.36
2013-8-7,86,75,66,76,70,65,96,87,64,30.07,29.99,5,0,5,0.00
2013-8-8,89,77,68,78,72,67,96,87,68,30.04,29.97,4,0,4,0.00
2013-8-9,91,79,72,80,74,70,96,86,66,30.01,29.94,6,0,6,0.00
2013-8-10,92,78,73,81,74,72,96,88,62,30.06,29.97,8,0,8,0.07
2013-8-11,94,78,71,80,73,69,96,87,58,30.07,29.98,9,0,9,0.79
2013-8-12,93,79,70,80,73,68,95,85,54,30.02,29.90,8,0,9,0.45
2013-8-13,90,76,70,79,73,69,96,89,66,29.95,29.75,5,0,9,0.53
2013-8-14,76,70,60,71,66,59,96,87,71,30.07,29.79,3,0,5,0.00
2013-8-15,77,64,57,65,59,56,96,85,54,30.15,30.06,5,0,5,0.00
2013-8-16,70,63,57,65,61,56,96,91,79,30.17,30.08,2,0,2,0.00
2013-8-17,70,65,60,69,64,58,96,96,92,30.17,30.10,2,0,2,0.31
2013-8-18,78,70,66,71,67,65,96,91,77,30.18,30.09,6,0,6,0.09
2013-8-19,75,68,65,72,67,64,96,95,91,30.17,30.07,1,0,2,0.34
2013-8-20,84,72,63,76,69,62,96,90,70,30.17,30.08,2,0,2,0.00
2013-8-21,85,74,69,78,72,68,96,93,76,30.19,30.07,4,0,4,0.18
2013-8-22,89,77,69,78,72,67,95,85,57,30.11,29.96,5,0,5,0.00
2013-8-23,87,75,67,79,71,65,96,90,66,30.05,29.90,7,0,7,0.23
2013-8-24,83,70,62,67,64,61,96,81,53,30.28,30.05,5,0,5,0.00
2013-8-25,80,67,59,66,62,58,96,84,52,30.37,30.26,6,0,6,0.00
2013-8-26,86,67,53,67,60,52,96,81,46,30.31,30.09,4,0,4,0.00
2013-8-27,89,74,61,77,68,60,95,83,56,30.10,29.93,6,0,6,0.00
2013-8-28,82,75,68,77,73,67,96,93,81,29.96,29.83,3,0,3,0.00
2013-8-29,86,78,70,76,73,68,95,86,66,29.99,29.81,6,0,6,0.00
2013-8-30,90,74,66,74,68,65,96,84,49,30.04,29.91,3,0,3,0.00
2013-8-31,88,75,66,77,71,65,96,87,66,29.94,29.82,5,0,5,0.00
2013-9-1,90,76,70,78,72,68,96,89,66,29.87,29.74,9,0,9,1.19
2013-9-2,89,76,68,79,72,66,96,88,68,29.86,29.76,3,0,3,0.00
2013-9-3,88,77,70,79,73,68,96,88,63,29.91,29.76,4,0,4,0.00
2013-9-4,87,73,65,76,68,62,96,85,64,30.06,29.91,4,0,4,0.00
2013-9-5,88,72,63,70,64,56,96,79,39,30.08,30.00,4,0,4,0.00
2013-9-6,82,69,60,67,62,57,96,80,54,30.16,30.06,5,0,5,0.00
2013-9-7,85,68,56,70,62,55,96,83,59,30.12,29.95,5,0,5,0.00
2013-9-8,88,71,61,73,66,60,96,86,49,29.97,29.88,1,0,5,0.00
2013-9-9,88,75,64,75,69,63,96,84,56,30.12,29.96,4,0,4,0.00
2013-9-10,92,75,64,76,70,63,96,84,51,30.21,30.11,5,0,5,0.00
2013-9-11,91,75,65,75,69,64,96,84,51,30.17,30.04,5,0,5,0.00
2013-9-12,90,76,67,77,71,66,96,86,62,30.05,29.78,5,0,5,0.00
2013-9-13,83,73,63,70,64,53,95,74,44,29.87,29.73,7,1,7,0.00
2013-9-14,76,63,54,60,54,50,95,73,49,30.12,29.87,8,0,8,0.00
2013-9-15,81,63,50,66,57,49,97,84,53,30.23,30.10,4,0,4,0.00
2013-9-16,84,72,61,71,65,60,96,81,52,30.17,30.02,9,0,9,0.00
2013-9-17,77,65,54,61,56,51,94,76,46,30.31,30.17,5,0,7,0.00
2013-9-18,72,58,49,57,51,47,96,81,43,30.30,30.16,5,0,5,0.00
2013-9-19,76,62,51,66,58,50,96,87,61,30.18,30.06,4,0,4,0.00
2013-9-20,69,65,62,68,64,61,96,96,94,30.07,29.94,1,0,1,0.29
2013-9-21,76,68,64,72,67,63,96,94,85,29.94,29.70,2,0,6,0.36
2013-9-22,77,65,57,64,61,56,96,87,58,29.88,29.69,7,0,7,0.30
2013-9-23,70,59,51,60,54,50,96,85,60,30.06,29.88,5,0,5,0.01
2013-9-24,76,61,52,63,57,50,96,87,62,30.09,29.93,3,0,3,0.00
2013-9-25,72,61,50,65,58,49,96,91,71,29.95,29.85,2,0,2,0.00
2013-9-26,75,64,56,62,58,54,96,84,48,30.02,29.86,6,0,6,0.00
2013-9-27,74,61,52,62,56,50,96,86,57,30.17,30.02,5,0,5,0.00
2013-9-28,70,59,51,59,54,50,96,87,62,30.25,30.15,6,0,6,0.01
2013-9-29,73,59,52,60,54,50,96,86,55,30.16,30.02,5,0,5,0.01
2013-9-30,75,60,50,62,55,49,97,87,55,30.09,29.98,2,0,3,0.00
2013-10-1,83,64,52,67,58,51,96,84,50,30.10,30.00,8,0,8,0.00
2013-10-2,83,67,56,66,60,55,96,83,49,30.11,30.02,5,0,5,0.00
2013-10-3,85,70,57,70,63,56,96,82,50,30.11,30.03,4,0,4,0.00
2013-10-4,86,70,59,71,64,58,96,84,50,30.11,30.02,6,0,6,0.00
2013-10-5,90,71,60,72,65,59,96,85,49,30.09,30.00,5,0,5,0.00
2013-10-6,84,70,59,71,66,58,96,88,64,30.04,29.90,6,0,6,0.00
2013-10-7,72,69,62,70,68,57,96,95,82,29.98,29.81,9,0,9,2.06
2013-10-8,63,59,56,57,52,48,87,77,68,30.19,29.97,7,1,7,0.00
2013-10-9,64,57,53,57,53,50,96,86,78,30.18,30.08,9,1,9,0.20
2013-10-10,60,56,52,59,55,51,96,96,96,30.08,29.92,10,1,10,0.86
2013-10-11,66,62,58,65,60,57,96,94,88,29.95,29.90,5,0,5,0.03
2013-10-12,68,63,60,65,62,59,96,96,92,30.07,29.93,4,0,4,0.01
2013-10-13,66,62,60,64,61,59,96,96,94,30.19,30.06,6,0,6,0.08
2013-10-14,64,60,56,62,59,55,97,95,92,30.23,30.16,6,0,6,0.04
2013-10-15,72,61,52,63,57,51,97,88,67,30.19,30.04,6,0,6,0.01
2013-10-16,70,64,59,64,61,58,96,92,79,30.05,29.93,0,0,0,0.00
2013-10-17,73,66,60,67,63,59,96,91,74,29.95,29.81,5,0,5,0.01
2013-10-18,70,61,52,65,54,48,96,81,52,30.02,29.85,6,0,6,0.00
2013-10-19,68,60,55,65,58,54,96,94,87,29.97,29.79,3,0,3,0.01
2013-10-20,65,52,42,57,46,40,97,82,47,30.11,29.88,5,0,5,0.01
2013-10-21,69,50,37,54,45,36,97,86,49,30.16,29.99,4,0,4,0.00
2013-10-22,67,58,50,60,55,49,96,90,71,29.99,29.78,2,0,2,0.00
2013-10-23,66,57,45,57,48,35,96,75,38,29.98,29.67,11,1,11,0.01
2013-10-24,57,45,35,41,36,32,93,72,44,30.17,29.98,8,1,8,0.00
2013-10-25,54,44,35,37,34,29,93,69,39,30.35,30.17,9,1,9,0.00
2013-10-26,59,42,28,40,33,27,96,73,39,30.35,30.05,9,1,9,0.00
2013-10-27,67,52,42,48,42,38,94,71,39,30.11,30.03,6,0,6,0.00
2013-10-28,68,54,42,55,49,41,97,84,52,30.25,30.10,3,0,3,0.00
2013-10-29,72,58,51,60,54,50,96,87,60,30.32,30.23,3,0,3,0.00
2013-10-30,74,59,51,62,55,50,97,89,65,30.27,30.14,5,0,5,0.00
2013-10-31,72,62,53,63,58,52,96,86,66,30.18,29.88,9,0,9,0.00
2013-11-1,71,67,61,67,65,60,96,92,82,29.90,29.62,14,1,14,0.46
2013-11-2,69,59,50,60,51,41,97,77,40,29.92,29.67,10,1,10,0.02
2013-11-3,61,49,39,41,39,37,94,72,42,30.36,29.92,11,1,11,0.00
2013-11-4,55,43,35,38,34,32,93,74,44,30.55,30.36,7,0,7,0.00
2013-11-5,57,47,35,50,41,32,92,81,66,30.54,30.42,8,1,8,0.00
2013-11-6,71,55,44,57,50,42,96,85,60,30.42,30.09,5,0,5,0.00
2013-11-7,68,58,44,61,51,34,96,80,52,30.10,29.91,13,1,13,0.00
2013-11-8,55,43,32,34,30,26,90,62,32,30.32,30.08,13,2,13,0.00
2013-11-9,57,43,29,36,31,27,93,66,35,30.37,30.17,9,1,9,0.00
2013-11-10,70,53,37,41,36,28,90,56,29,30.22,30.05,12,1,13,0.00
2013-11-11,60,45,31,34,30,27,87,61,32,30.34,30.12,6,0,7,0.00
2013-11-12,58,42,33,39,33,20,93,74,46,30.42,30.02,12,2,12,0.02
2013-11-13,44,32,25,21,19,17,83,60,35,30.53,30.41,10,2,10,0.00
2013-11-14,58,38,22,28,23,20,93,62,27,30.47,30.32,10,1,10,0.00
2013-11-15,61,45,28,46,35,24,91,70,45,30.35,30.20,8,0,8,0.03
2013-11-16,61,54,48,57,52,46,96,94,86,30.25,30.19,5,0,5,0.01
2013-11-17,67,60,54,64,58,53,96,94,84,30.20,29.86,11,0,11,0.05
2013-11-18,73,64,53,66,51,30,96,67,34,29.95,29.78,14,2,14,0.09
2013-11-19,54,46,38,32,30,28,72,53,37,30.30,29.94,15,2,15,0.00
2013-11-20,51,42,35,37,32,28,88,66,49,30.44,30.30,7,1,14,0.00
2013-11-21,59,48,39,48,42,36,89,79,64,30.50,30.38,7,1,7,0.00
2013-11-22,69,57,46,60,53,43,93,85,74,30.38,30.06,10,1,10,0.00
2013-11-23,61,55,42,59,43,21,95,67,39,30.16,30.01,13,2,13,0.00
2013-11-24,42,31,23,24,9,0,58,41,23,30.54,30.16,21,4,21,0.00
2013-11-25,43,30,17,21,12,7,82,51,24,30.59,30.38,7,1,7,0.00
2013-11-26,63,41,35,62,34,17,97,78,45,30.38,29.59,14,1,14,1.15
2013-11-27,46,39,28,45,36,19,97,89,65,30.15,29.49,21,4,21,0.66
2013-11-28,44,31,24,25,20,16,90,66,38,30.48,30.15,10,1,12,0.00
2013-11-29,49,34,24,28,25,22,95,71,41,30.64,30.47,12,1,12,0.00
2013-11-30,47,35,27,33,27,22,92,75,57,30.65,30.37,9,1,9,0.00
2013-12-1,60,39,26,38,30,24,96,76,37,30.37,30.02,6,0,6,0.00
2013-12-2,60,44,32,45,38,30,96,82,51,30.02,29.81,6,0,6,0.00
2013-12-3,55,45,32,47,41,31,97,89,70,29.99,29.86,6,0,6,0.01
2013-12-4,62,55,48,58,53,46,96,93,83,30.07,29.97,4,0,4,0.00
2013-12-5,67,61,56,64,60,55,96,95,90,30.10,30.00,11,1,11,0.09
2013-12-6,76,70,65,66,64,62,96,83,67,30.04,29.93,26,4,26,0.01
2013-12-7,69,48,42,65,44,35,96,87,76,30.44,29.95,13,2,13,0.27
2013-12-8,42,35,32,35,31,29,97,89,70,30.47,30.27,9,2,9,0.38
2013-12-9,44,38,33,43,37,32,97,97,97,30.29,30.06,6,0,6,0.30
2013-12-10,47,41,27,44,39,26,97,92,70,30.31,29.91,11,1,11,0.47
2013-12-11,48,34,23,30,26,22,97,74,40,30.45,30.28,10,1,10,0.00
2013-12-12,43,34,24,29,22,15,91,63,33,30.42,30.26,12,2,12,0.00
2013-12-13,51,35,22,30,23,17,89,65,30,30.38,30.26,10,1,10,0.00
2013-12-14,46,39,34,41,36,30,97,88,58,30.30,29.77,11,1,11,0.88
2013-12-15,52,42,32,43,36,28,97,81,55,30.06,29.69,13,2,13,0.03
2013-12-16,55,40,28,36,32,26,93,76,44,30.16,30.05,10,1,10,0.00
2013-12-17,62,45,29,40,35,28,97,72,39,30.10,29.86,16,1,16,0.00
2013-12-18,48,38,28,37,23,18,89,57,30,30.28,30.02,11,2,11,0.00
2013-12-19,63,43,26,30,25,20,87,55,23,30.31,30.20,14,1,14,0.00
2013-12-20,66,54,42,54,45,30,87,73,56,30.22,30.09,13,1,13,0.00
2013-12-21,74,60,45,66,56,44,96,86,66,30.13,30.00,13,2,13,0.00
2013-12-22,76,70,63,68,65,61,96,86,69,30.06,29.98,19,4,19,0.25
2013-12-23,65,59,45,64,57,38,96,93,76,30.14,29.96,13,2,13,1.67
2013-12-24,45,39,28,38,27,14,78,63,45,30.44,30.11,13,4,13,0.00
2013-12-25,39,28,21,17,14,12,81,57,32,30.55,30.40,5,1,6,0.00
2013-12-26,52,35,21,28,24,16,91,68,36,30.40,30.24,9,1,9,0.00
2013-12-27,53,36,26,28,24,20,86,64,29,30.46,30.36,7,1,7,0.00
2013-12-28,59,41,25,39,29,22,92,67,29,30.40,30.15,8,0,8,0.00
2013-12-29,55,46,41,51,44,36,97,92,71,30.15,29.69,14,1,14,1.78
2013-12-30,53,45,36,43,39,34,97,81,64,30.12,29.91,10,1,10,0.00
2013-12-31,50,40,32,38,30,21,96,70,34,30.34,30.10,14,1,14,0.03
2014-1-1,50,38,30,31,27,25,86,68,40,30.42,30.14,8,1,8,0.00
2014-1-2,47,41,34,44,37,30,96,86,72,30.14,29.57,14,1,14,0.38